STARLINK-32541

Last updated on Thu Nov 21 2024 00:02:06 GMT+0000 (Coordinated Universal Time)

1 61916U 24207E 24325.58335648 -.00697146 00000+0 -23241-2 0 9994 2 61916 43.0029 96.5792 0001718 292.5185 106.4421 15.90778323 2443
UTC large
Height (km)
Speed (km/s)
/
Latitude / Longitude
Inclination (degrees)
Orbital Period (minutes)
Azimuth
Elevation
Range (km)
Doppler Factor

Next 0 passes for location: London (51.5072 / 0.1276)

Sorry there are no passes over London.